Location: Newark
(34.9500°N, 139.9667°E)
Time: 06:07:57
(UTC+00:00)

Transit 2A - Pass Details

Date: 08 December 2019
Orbit: 601 x 958 km, 66.7° (Epoch: 23 January)

Event Time Altitude Azimuth Distance (km) Brightness Sun altitude
Rises 06:37:57 0° 344° (NNW) 2,874 8.8 8.0°
Reaches altitude 10° 06:40:24 10° 356° (N) 1,990 7.9 7.6°
Maximum altitude 06:44:19 29° 58° (ENE) 1,174 6.5 6.9°
Drops below altitude 10° 06:48:27 10° 119° (ESE) 2,113 8.0 6.2°
Sets 06:51:07 0° 130° (SE) 3,085 9.0 5.8°
